Location: Antin
(43.3330°N, 0.2804°E)
Time: 04:52:10
(UTC+00:00)

Cosmos 2227 - Pass Details

Date: 16 October 2021
Orbit: 833 x 862 km, 71.0° (Epoch: 02 December)

Event Time Altitude Azimuth Distance (km) Brightness Sun altitude
Rises 18:45:16 0° 339° (NNW) 3,449 7.7 -17.3°
Reaches altitude 10° 18:47:51 10° 345° (NNW) 2,510 6.9 -17.8°
Maximum altitude 18:53:25 47° 59° (ENE) 1,128 4.5 -18.8°
Enters shadow 18:55:28 34° 109° (ESE) 1,398 4.8 -19.2°
